TimePDT,TemperatureF,Dew PointF,Humidity,Sea Level PressureIn,VisibilityMPH,Wind Direction,Wind SpeedMPH,Gust SpeedMPH,PrecipitationIn,Events,Conditions,WindDirDegrees,DateUTC
12:53 AM,41.0,39.0,93,30.22,8.0,Calm,Calm,-,N/A,,Clear,0,2013-10-22 07:53:00
1:53 AM,39.9,37.9,93,30.22,6.0,Calm,Calm,-,N/A,,Clear,0,2013-10-22 08:53:00
1:58 AM,39.2,39.2,100,30.22,1.8,Calm,Calm,-,N/A,,Clear,0,2013-10-22 08:58:00
2:02 AM,39.2,37.4,93,30.22,0.5,Calm,Calm,-,N/A,Fog,Fog,0,2013-10-22 09:02:00
2:09 AM,39.2,39.2,100,30.22,1.0,Calm,Calm,-,N/A,,Clear,0,2013-10-22 09:09:00
2:13 AM,39.2,39.2,100,30.22,3.0,Calm,Calm,-,N/A,,Clear,0,2013-10-22 09:13:00
2:25 AM,39.2,39.2,100,30.23,1.8,Calm,Calm,-,N/A,,Clear,0,2013-10-22 09:25:00
2:36 AM,39.2,37.4,93,30.22,3.0,Calm,Calm,-,N/A,,Clear,0,2013-10-22 09:36:00
2:47 AM,37.4,37.4,100,30.22,1.8,Calm,Calm,-,N/A,,Clear,0,2013-10-22 09:47:00
2:53 AM,37.9,37.0,97,30.22,1.8,NNE,3.5,-,N/A,,Clear,30,2013-10-22 09:53:00
3:13 AM,39.2,37.4,93,30.22,1.0,Calm,Calm,-,N/A,,Mist,0,2013-10-22 10:13:00
3:16 AM,37.4,37.4,100,30.22,0.5,Calm,Calm,-,N/A,Fog,Fog,0,2013-10-22 10:16:00
3:53 AM,39.0,37.9,96,30.22,0.8,NE,3.5,-,N/A,,Mist,50,2013-10-22 10:53:00
3:56 AM,39.2,37.4,93,30.21,1.2,NE,3.5,-,N/A,,Scattered Clouds,50,2013-10-22 10:56:00
4:00 AM,39.2,37.4,93,30.21,3.0,NE,3.5,-,N/A,,Scattered Clouds,40,2013-10-22 11:00:00
4:10 AM,39.2,37.4,93,30.21,1.8,Calm,Calm,-,N/A,,Scattered Clouds,0,2013-10-22 11:10:00
4:15 AM,37.4,37.4,100,30.22,0.8,Calm,Calm,-,N/A,,Mist,0,2013-10-22 11:15:00
4:28 AM,39.2,39.2,100,30.22,1.2,East,3.5,-,N/A,,Mostly Cloudy,80,2013-10-22 11:28:00
4:33 AM,41.0,39.2,93,30.22,3.0,Calm,Calm,-,N/A,,Overcast,0,2013-10-22 11:33:00
4:45 AM,39.2,39.2,100,30.21,2.5,ENE,3.5,-,N/A,,Overcast,70,2013-10-22 11:45:00
4:53 AM,41.0,39.0,93,30.22,4.0,Calm,Calm,-,N/A,,Overcast,0,2013-10-22 11:53:00
4:58 AM,41.0,39.2,93,30.22,1.8,Calm,Calm,-,N/A,,Overcast,0,2013-10-22 11:58:00
5:09 AM,41.0,39.2,93,30.22,0.8,Calm,Calm,-,N/A,,Overcast,0,2013-10-22 12:09:00
5:17 AM,42.8,41.0,93,30.22,1.8,Calm,Calm,-,N/A,,Overcast,0,2013-10-22 12:17:00
5:53 AM,42.1,39.9,92,30.23,1.2,Calm,Calm,-,N/A,,Overcast,0,2013-10-22 12:53:00
6:53 AM,42.1,41.0,96,30.23,1.0,Calm,Calm,-,N/A,,Mist,0,2013-10-22 13:53:00
7:00 AM,42.8,41.0,93,30.22,0.5,Calm,Calm,-,N/A,Fog,Fog,0,2013-10-22 14:00:00
7:53 AM,42.1,41.0,96,30.25,0.2,ENE,3.5,-,N/A,Fog,Fog,60,2013-10-22 14:53:00
8:53 AM,43.0,42.1,97,30.25,1.0,ENE,3.5,-,N/A,,Overcast,60,2013-10-22 15:53:00
9:10 AM,42.8,41.0,93,30.24,0.5,ENE,5.8,-,N/A,Fog,Fog,70,2013-10-22 16:10:00
9:53 AM,44.1,43.0,96,30.26,1.2,East,4.6,-,N/A,,Overcast,80,2013-10-22 16:53:00
10:06 AM,44.6,44.6,100,30.24,3.0,East,4.6,-,N/A,,Overcast,80,2013-10-22 17:06:00
10:27 AM,44.6,44.6,100,30.24,5.0,ESE,3.5,-,N/A,,Overcast,120,2013-10-22 17:27:00
10:53 AM,46.0,44.1,93,30.25,3.0,East,5.8,-,N/A,,Overcast,80,2013-10-22 17:53:00
11:35 AM,48.2,44.6,87,30.23,7.0,Calm,Calm,-,N/A,,Overcast,0,2013-10-22 18:35:00
11:53 AM,50.0,44.1,80,30.24,8.0,ESE,3.5,-,N/A,,Mostly Cloudy,120,2013-10-22 18:53:00
12:12 PM,51.8,44.6,76,30.22,8.0,Calm,Calm,-,N/A,,Scattered Clouds,0,2013-10-22 19:12:00
12:53 PM,55.0,45.0,69,30.22,10.0,Calm,Calm,-,N/A,,Clear,0,2013-10-22 19:53:00
1:53 PM,59.0,46.0,62,30.18,10.0,Calm,Calm,-,N/A,,Clear,0,2013-10-22 20:53:00
2:53 PM,61.0,46.0,58,30.16,10.0,Calm,Calm,-,N/A,,Clear,0,2013-10-22 21:53:00
3:53 PM,63.0,46.0,54,30.15,10.0,Calm,Calm,-,N/A,,Clear,0,2013-10-22 22:53:00
4:53 PM,64.0,46.0,52,30.13,10.0,Calm,Calm,-,N/A,,Clear,0,2013-10-22 23:53:00
5:53 PM,54.0,46.0,75,30.14,10.0,Calm,Calm,-,N/A,,Clear,0,2013-10-23 00:53:00
6:53 PM,48.9,45.0,86,30.14,10.0,Calm,Calm,-,N/A,,Clear,0,2013-10-23 01:53:00
7:53 PM,46.9,43.0,86,30.16,10.0,NE,3.5,-,N/A,,Clear,40,2013-10-23 02:53:00
8:53 PM,46.9,43.0,86,30.15,10.0,Calm,Calm,-,N/A,,Clear,0,2013-10-23 03:53:00
9:53 PM,44.1,42.1,93,30.16,9.0,Calm,Calm,-,N/A,,Clear,0,2013-10-23 04:53:00
10:45 PM,42.8,41.0,93,30.15,1.8,Calm,Calm,-,N/A,,Clear,0,2013-10-23 05:45:00
10:53 PM,43.0,42.1,97,30.17,1.2,Calm,Calm,-,N/A,,Clear,0,2013-10-23 05:53:00
11:03 PM,42.8,42.8,100,30.15,1.5,Calm,Calm,-,N/A,,Partly Cloudy,0,2013-10-23 06:03:00
11:07 PM,42.8,42.8,100,30.15,3.0,Calm,Calm,-,N/A,,Partly Cloudy,0,2013-10-23 06:07:00
11:19 PM,42.8,41.0,93,30.15,1.8,Calm,Calm,-,N/A,,Clear,0,2013-10-23 06:19:00
11:25 PM,42.8,41.0,93,30.15,3.0,NNE,3.5,-,N/A,,Clear,30,2013-10-23 06:25:00
11:53 PM,45.0,42.1,90,30.16,8.0,Calm,Calm,-,N/A,,Clear,0,2013-10-23 06:53:00